Regional Weather Roundup
Issued by NWS

Home | Current Version | Previous Version | Graphics & Text | Print | Product List | Glossary On
Versions: 1 2 3 4 5 6 7 8 9 10 11 12 13 14 15 16 17 18 19 20 21 22 23 24 25 26 27 28 29 30 31 32 33 34 35 36 37 38 39 40 41 42 43 44 45 46 47 48 49 50
345
ASUS43 KLMK 091110
RWRKY
KENTUCKY REGIONAL WEATHER ROUNDUP
NATIONAL WEATHER SERVICE LOUISVILLE KY
600 AM EST TUE FEB 09 2016

NOTE "FAIR" INDICATES FEW OR NO CLOUDS BELOW 12,000 FEET
WITH NO SIGNIFICANT WEATHER AND/OR OBSTRUCTIONS TO VISIBILITY.

KYZ001>023-026-027-061>063-070>075-091200-
WESTERN AND SOUTH CENTRAL KENTUCKY

CITY           SKY/WX    TMP DP  RH WIND       PRES   REMARKS
PADUCAH        LGT SNOW  23  19  85 MISG      29.89R FOG
HENDERSON      CLOUDY    21  14  73 W10       29.86S WCI  10
OWENSBORO      FLURRIES  21  15  78 NW8       29.86R WCI  11
HOPKINSVILLE   FLURRIES  24  16  72 NW8       29.86R WCI  15
BOWLING GREEN  CLOUDY    23  17  78 W10       29.86R WCI  12
GLASGOW        FLURRIES  21  17  82 W7        29.84R WCI  13
$$

KYZ024-025-028>034-038-045-046-053-091200-
NORTH CENTRAL KENTUCKY

CITY           SKY/WX    TMP DP  RH WIND       PRES   REMARKS
LOUISVILLE/SDF LGT SNOW  22  17  81 W8        29.81R WCI  12
LOUISVILLE/LOU CLOUDY    22  15  75 W8        29.81R WCI  12
FORT KNOX      FLURRIES  20  15  82 W7        29.78S WCI  11
$$

KYZ035>037-039>044-047>052-055>060-089>105-091200-
NORTHEAST KENTUCKY

CITY           SKY/WX    TMP DP  RH WIND       PRES   REMARKS
LEXINGTON      CLOUDY    20  14  77 W7        29.76S WCI  11
COVINGTON      LGT SNOW  20  17  88 SW8       29.72R FOG     WCI  10
FRANKFORT      CLOUDY    21  14  74 SW8       29.76S WCI  11
$$

KYZ054-064>069-076>088-106>120-091200-
SOUTHEAST KENTUCKY

CITY           SKY/WX    TMP DP  RH WIND       PRES   REMARKS
JACKSON        CLOUDY    21  15  78 VRB5      29.72R WCI  15
LONDON         LGT SNOW  21  16  81 W8        29.77R WCI  11
SOMERSET       CLOUDY    21  14  73 W8        29.82R WCI  12
MIDDLESBORO    LGT SNOW  23  18  80 NW6       29.78R WCI  16
MONTICELLO     FLURRIES  22  16  78 W12G20    29.82R WCI  10
$$





USA.gov is the U.S. government's official web portal to all federal, state and local government web resources and services.